27 maja 2022

Czas Kod Pogoda Temp. Widoczność Sufit Wiatr METAR/SPECI
8:25 pm
V
55 °F 6¼ mi+ - 300° 300° 17 kt METAR EHLW 271825Z AUTO 30017KT 250V330 9999 NCD 13/07 Q1020 BLU
7:55 pm
V
55 °F 6¼ mi+ - 300° 300° 17 kt METAR EHLW 271755Z AUTO 30017KT 260V320 9999 FEW028 13/07 Q1020 BLU
7:25 pm
V
55 °F 6¼ mi+ 3.000 ft 300° 300° 18 kt METAR EHLW 271725Z AUTO 30018KT 260V340 9999 BKN030 BKN035 13/06 Q1020 BLU
6:55 pm
V
55 °F 6¼ mi+ 3.300 ft 300° 300° 18 kt METAR EHLW 271655Z AUTO 30018KT 260V330 9999 SCT029 BKN033 BKN039 13/06 Q1020 BLU
6:25 pm
V
55 °F 6¼ mi+ 3.400 ft 300° 300° 18 kt METAR EHLW 271625Z AUTO 30018KT 260V320 9999 SCT025 BKN034 BKN039 13/07 Q1020 BLU
5:55 pm
V
57 °F 6¼ mi+ 3.500 ft 300° 300° 19 kt METAR EHLW 271555Z AUTO 30019KT 250V320 9999 SCT026 SCT030 BKN035 14/07 Q1020 BLU
5:26 pm
V
57 °F 6¼ mi+ 3.000 ft 300° 300° 20 - 30 kt METAR EHLW 271526Z AUTO 30020G30KT 260V330 9999 SCT026 BKN030 BKN036 14/07 Q1020 BLU
5:18 pm
M
55 °F 6¼ mi+ 2.800 ft 290° 290° 19 kt METAR EHLW 271518Z AUTO 29019KT 250V320 9999 SCT024 BKN028 BKN034 13/07 Q1020 WHT
4:55 pm
V
57 °F 6¼ mi+ 3.800 ft 290° 290° 20 kt METAR EHLW 271455Z AUTO 29020KT 250V330 9999 SCT026 SCT032 BKN038 14/07 Q1020 BLU
4:40 pm
M
57 °F 6¼ mi+ 2.800 ft 300° 300° 18 kt METAR EHLW 271440Z AUTO 30018KT 260V330 9999 SCT024 BKN028 BKN035 14/08 Q1020 WHT
4:34 pm
V
57 °F 6¼ mi+ 3.600 ft 290° 290° 18 kt METAR EHLW 271434Z AUTO 29018KT 250V320 9999 SCT026 SCT030 BKN036 14/07 Q1020 BLU
4:29 pm
V
57 °F 6¼ mi+ 3.600 ft 280° 280° 20 kt METAR EHLW 271429Z AUTO 28020KT 260V320 9999 SCT024 SCT028 BKN036 14/07 Q1020 WHT
4:25 pm
V
57 °F 6¼ mi+ 4.200 ft 290° 290° 21 kt METAR EHLW 271425Z AUTO 29021KT 260V320 9999 FEW026 BKN042 14/08 Q1020 BLU
4:02 pm
V
57 °F 6¼ mi+ 3.100 ft 290° 290° 17 kt METAR EHLW 271402Z AUTO 29017KT 240V330 9999 SCT024 SCT028 BKN031 14/08 Q1020 WHT
3:55 pm
V
55 °F 6¼ mi+ 3.900 ft 280° 280° 19 kt METAR EHLW 271355Z AUTO 28019KT 240V330 9999 FEW024 SCT031 BKN039 13/07 Q1020 BLU
3:32 pm
V
55 °F 6¼ mi+ 3.900 ft 290° 290° 18 kt METAR EHLW 271332Z AUTO 29018KT 240V310 9999 FEW024 SCT034 BKN039 13/07 Q1020 BLU
3:25 pm
M
57 °F 6¼ mi+ 2.300 ft 290° 290° 19 kt METAR EHLW 271325Z AUTO 29019KT 240V310 9999 BKN023 BKN032 BKN039 14/08 Q1020 WHT
3:03 pm
V
55 °F 6¼ mi+ 3.900 ft 280° 280° 20 kt METAR EHLW 271303Z AUTO 28020KT 250V320 9999 SCT024 SCT033 BKN039 13/07 Q1020 WHT
2:55 pm
V
57 °F 6¼ mi+ - 280° 280° 18 kt METAR EHLW 271255Z AUTO 28018KT 250V320 9999 FEW027 SCT037 14/07 Q1020 BLU
2:25 pm
M
55 °F 6¼ mi+ 2.600 ft 290° 290° 19 kt METAR EHLW 271225Z AUTO 29019KT 250V330 9999 SCT023 BKN026 BKN033 13/08 Q1019 WHT
2:00 pm
V
55 °F 6¼ mi+ 3.000 ft 290° 290° 19 kt METAR EHLW 271200Z AUTO 29019KT 250V320 9999 SCT025 BKN030 OVC036 13/07 Q1019 BLU
1:55 pm
M
55 °F 6¼ mi+ 2.900 ft 280° 280° 18 kt METAR EHLW 271155Z AUTO 28018KT 250V310 9999 SCT024 BKN029 BKN038 13/07 Q1019 WHT
1:25 pm
M
55 °F 6¼ mi+ 2.900 ft 290° 290° 18 kt METAR EHLW 271125Z AUTO 29018KT 240V320 9999 SCT025 BKN029 BKN034 13/07 Q1019 BLU
12:55 pm
V
55 °F 6¼ mi+ 3.500 ft 290° 290° 19 kt METAR EHLW 271055Z AUTO 29019KT 250V310 9999 FEW027 SCT031 BKN035 13/06 Q1019 BLU
12:25 pm
V
55 °F 6¼ mi+ 3.800 ft 280° 280° 18 kt METAR EHLW 271025Z AUTO 28018KT 260V320 9999 SCT028 BKN038 BKN043 13/06 Q1019 BLU
11:55 am
M
55 °F 6¼ mi+ 2.900 ft 290° 290° 18 kt METAR EHLW 270955Z AUTO 29018KT 240V310 9999 BKN029 BKN032 BKN037 13/06 Q1019 BLU
11:25 am
M
55 °F 6¼ mi+ 2.900 ft 290° 290° 17 kt METAR EHLW 270925Z AUTO 29017KT 240V320 9999 BKN029 BKN034 13/06 Q1019 BLU
10:55 am
V
55 °F 6¼ mi+ - 280° 280° 17 kt METAR EHLW 270855Z AUTO 28017KT 240V330 9999 FEW029 SCT034 13/06 Q1018 BLU
10:25 am
V
55 °F 6¼ mi+ - 280° 280° 18 kt METAR EHLW 270825Z AUTO 28018KT 240V330 9999 FEW031 SCT038 13/06 Q1018 BLU
9:55 am
V
55 °F 6¼ mi+ - 290° 290° 15 kt METAR EHLW 270755Z AUTO 29015KT 260V320 9999 SCT028 SCT032 13/06 Q1018 BLU
9:25 am
V
55 °F 6¼ mi+ - 290° 290° 16 kt METAR EHLW 270725Z AUTO 29016KT 260V320 9999 FEW028 13/06 Q1018 BLU
8:55 am
V
55 °F 6¼ mi+ - 290° 290° 16 kt METAR EHLW 270655Z AUTO 29016KT 260V320 9999 NCD 13/06 Q1018 BLU
8:25 am
V
55 °F 6¼ mi+ - 290° 290° 14 kt METAR EHLW 270625Z AUTO 29014KT 260V330 9999 FEW037 13/06 Q1017 BLU
7:55 am
V
54 °F 6¼ mi+ 5.300 ft 300° 300° 14 kt METAR EHLW 270555Z AUTO 30014KT 260V330 9999 BKN053 12/05 Q1017 BLU
7:25 am
V
54 °F 6¼ mi+ 5.000 ft 290° 290° 13 kt METAR EHLW 270525Z AUTO 29013KT 260V320 9999 FEW029 SCT043 BKN050 12/06 Q1017 BLU
6:55 am
V
54 °F 6¼ mi+ 4.800 ft 290° 290° 11 kt METAR EHLW 270455Z AUTO 29011KT 240V310 9999 FEW031 SCT044 BKN048 12/07 Q1017 BLU
6:25 am
V
52 °F 6¼ mi+ 5.400 ft 280° 280° 6 kt METAR EHLW 270425Z AUTO 28006KT 250V310 9999 FEW041 BKN054 OVC260 11/07 Q1017 BLU
5:55 am
V
52 °F 6¼ mi+ 5.200 ft 290° 290° 6 kt METAR EHLW 270355Z AUTO 29006KT 250V320 9999 FEW034 BKN052 OVC058 11/07 Q1017 BLU
5:25 am
V
52 °F 6¼ mi+ 26.000 ft 290° 290° 8 kt METAR EHLW 270325Z AUTO 29008KT 240V310 9999 OVC260 11/08 Q1017 BLU
4:55 am
V
52 °F 6¼ mi+ 5.300 ft 260° 260° 6 kt METAR EHLW 270255Z AUTO 26006KT 9999 FEW041 BKN053 BKN066 11/09 Q1017 BLU
4:25 am
V
52 °F 6¼ mi+ 27.000 ft 260° 260° 5 kt METAR EHLW 270225Z AUTO 26005KT 240V300 9999 SCT053 OVC270 11/08 Q1017 BLU
3:55 am
V
52 °F 6¼ mi+ 4.900 ft 290° 290° 5 kt METAR EHLW 270155Z AUTO 29005KT 9999 BKN049 OVC054 11/09 Q1017 BLU
3:25 am
V
54 °F 6¼ mi+ 5.300 ft 290° 290° 7 kt METAR EHLW 270125Z AUTO 29007KT 260V320 9999 BKN053 OVC058 12/09 Q1017 BLU
2:55 am
V
55 °F 6¼ mi+ 26.000 ft 300° 300° 10 kt METAR EHLW 270055Z AUTO 30010KT 260V330 9999 SCT054 OVC260 13/10 Q1017 BLU
2:25 am
V
55 °F 6¼ mi+ 4.800 ft 290° 290° 8 kt METAR EHLW 270025Z AUTO 29008KT 250V320 9999 BKN048 BKN053 BKN290 13/11 Q1017 BLU
1:55 am
V
57 °F 6¼ mi+ 10.000 ft 280° 280° 9 kt METAR EHLW 262355Z AUTO 28009KT 250V320 9999 FEW014 BKN100 BKN280 14/12 Q1016 BLU
1:35 am
M
57 °F 6¼ mi+ 1.400 ft 280° 280° 10 kt METAR EHLW 262335Z AUTO 28010KT 240V300 9999 FEW012 BKN014 BKN017 14/12 Q1016 GRN
1:31 am
M
57 °F 6¼ mi+ 1.500 ft 270° 270° 10 kt METAR EHLW 262331Z AUTO 27010KT 240V300 9999 FEW012 BKN015 BKN018 14/12 Q1016 WHT
1:25 am
M
57 °F 6¼ mi+ 1.500 ft 270° 270° 12 kt METAR EHLW 262325Z AUTO 27012KT 240V300 9999 FEW012 BKN015 BKN019 14/12 Q1016 WHT
1:00 am
M
57 °F 6¼ mi+ 1.500 ft 260° 260° 15 kt METAR EHLW 262300Z AUTO 26015KT 230V300 9999 FEW011 BKN015CB BKN047 14/12 Q1016 WHT
12:59 am
M
57 °F 6¼ mi+ 1.600 ft 260° 260° 16 kt METAR EHLW 262259Z AUTO 26016KT 230V290 9999 FEW011 SCT014 FEW015CB BKN016 14/12 Q1016 GRN
12:55 am
M
57 °F 6¼ mi+ 1.500 ft 260° 260° 16 kt METAR EHLW 262255Z AUTO 26016KT 230V290 9999 FEW012 BKN015CB BKN019 14/12 Q1016 REDZ WHT
12:38 am
M
57 °F 6¼ mi+ 1.400 ft 260° 260° 14 kt METAR EHLW 262238Z AUTO 26014KT 230V290 9999 -RA FEW009 SCT012 BKN014 FEW015CB 14/13 Q1016 GRN
12:32 am
M
59 °F 6¼ mi+ 1.300 ft 260° 260° 13 kt METAR EHLW 262232Z AUTO 26013KT 210V280 9999 DZRA FEW009 SCT011 BKN013 FEW015CB 15/13 Q1016 GRN
12:25 am
M
59 °F 6¼ mi+ 1.300 ft 260° 260° 14 kt METAR EHLW 262225Z AUTO 26014KT 220V290 9999 -RA FEW011 BKN013 FEW015CB BKN016 15/13 Q1016 RERA REDZ GRN
12:19 am
M
59 °F 6¼ mi+ 1.700 ft 260° 260° 14 kt METAR EHLW 262219Z AUTO 26014KT 230V290 9999 -RA FEW012 SCT014 FEW015CB BKN017 15/13 Q1016 GRN

26 maja 2022

Czas Kod Pogoda Temp. Widoczność Sufit Wiatr METAR/SPECI
11:55 pm
M
59 °F 6¼ mi+ 1.500 ft 250° 250° 11 kt METAR EHLW 262155Z AUTO 25011KT 210V270 9999 -RADZ FEW013 BKN015CB 15/13 Q1016 WHT
11:37 pm
V
59 °F 6¼ mi+ 4.200 ft 250° 250° 13 kt METAR EHLW 262137Z AUTO 25013KT 220V280 9999 SCT016 SCT019 BKN042 15/13 Q1016 WHT
11:36 pm
V
59 °F 6¼ mi+ 4.200 ft 250° 250° 13 kt METAR EHLW 262136Z AUTO 25013KT 220V280 9999 FEW012 BKN042 BKN055 15/13 Q1016 BLU
11:25 pm
M
59 °F 6¼ mi+ 1.600 ft 250° 250° 15 kt METAR EHLW 262125Z AUTO 25015KT 210V290 9999 FEW014 BKN016 BKN020 15/13 Q1016 WHT
11:18 pm
V
59 °F 6¼ mi+ 3.000 ft 250° 250° 15 kt METAR EHLW 262118Z AUTO 25015KT 210V270 9999 FEW016 SCT019 BKN030 15/13 Q1016 WHT
10:55 pm
V
59 °F 6¼ mi+ 4.000 ft 240° 240° 15 kt METAR EHLW 262055Z AUTO 24015KT 210V270 9999 FEW010/// SCT033/// BKN040/// 15/13 Q1016 BLU RMK TS INFO NOT AVBL
10:43 pm
V
59 °F 6¼ mi+ 4.200 ft 250° 250° 15 kt METAR EHLW 262043Z AUTO 25015KT 210V270 9999 FEW012/// SCT017/// BKN042/// 15/13 Q1016 WHT RMK TS INFO NOT AVBL
10:25 pm
V
59 °F 6¼ mi+ 3.600 ft 250° 250° 15 kt METAR EHLW 262025Z AUTO 25015KT 210V270 9999 SCT032/// BKN036/// BKN047/// 15/13 Q1016 BLU RMK TS INFO NOT AVBL
9:55 pm
M
59 °F 6¼ mi+ 2.900 ft 250° 250° 19 kt METAR EHLW 261955Z AUTO 25019KT 210V270 9999 FEW009/// OVC029/// 15/13 Q1016 REDZ BLU RMK TS INFO NOT AVBL
9:36 pm
M
59 °F 6¼ mi+ 2.700 ft 250° 250° 18 kt METAR EHLW 261936Z AUTO 25018KT 210V280 9999 RADZ FEW016/// BKN027/// OVC034/// 15/13 Q1016 BLU RMK TS INFO NOT AVBL
9:25 pm
V
59 °F 5⅝ mi 3.100 ft 240° 240° 17 kt METAR EHLW 261925Z AUTO 24017KT 200V270 9000 DZRA FEW007/// SCT027/// BKN031/// 15/13 Q1016 BLU RMK TS INFO NOT AVBL
9:12 pm
M
59 °F 6¼ mi+ 2.700 ft 240° 240° 17 kt METAR EHLW 261912Z AUTO 24017KT 210V270 9999 -RA FEW016/// BKN027/// OVC031/// 15/13 Q1016 BLU RMK TS INFO NOT AVBL
8:59 pm
V
59 °F 5⅝ mi 3.100 ft 240° 240° 17 kt METAR EHLW 261859Z AUTO 24017KT 210V270 9000 +DZ FEW027/// BKN031/// OVC035/// 15/13 Q1016 BLU RMK TS INFO NOT AVBL
8:55 pm
M
59 °F 3¾ mi 3.600 ft 240° 240° 16 kt METAR EHLW 261855Z AUTO 24016KT 210V270 6000 +DZRA FEW024/// SCT032/// BKN036/// 15/13 Q1016 WHT RMK TS INFO NOT AVBL
8:39 pm
I
59 °F 2⅝ mi 2.900 ft 240° 240° 19 - 29 kt METAR EHLW 261839Z AUTO 24019G29KT 190V270 4300 -RA SCT026/// BKN029/// BKN035/// 15/13 Q1016 GRN RMK TS INFO NOT AVBL
8:26 pm
V
59 °F 6¼ mi+ 4.300 ft 240° 240° 18 kt METAR EHLW 261826Z AUTO 24018KT 210V270 9999 FEW014/// SCT031/// BKN043/// 15/13 Q1016 BLU RMK TS INFO NOT AVBL
8:25 pm
V
59 °F 6¼ mi+ 3.100 ft 240° 240° 17 kt METAR EHLW 261825Z AUTO 24017KT 210V270 9999 FEW014/// SCT016/// BKN031/// 15/13 Q1016 REDZ WHT RMK TS INFO NOT AVBL
8:15 pm
M
59 °F 6¼ mi+ 2.500 ft 240° 240° 16 kt METAR EHLW 261815Z AUTO 24016KT 210V270 9999 FEW014/// SCT017/// BKN025/// 15/13 Q1016 WHT RMK TS INFO NOT AVBL
8:03 pm
M
57 °F 6¼ mi+ 2.600 ft 240° 240° 16 kt METAR EHLW 261803Z AUTO 24016KT 9999 -DZ FEW006/// SCT017/// BKN026/// 14/13 Q1016 WHT RMK TS INFO NOT AVBL
8:00 pm
I
57 °F 3 mi 1.300 ft 240° 240° 16 kt METAR EHLW 261800Z AUTO 24016KT 220V280 4800 +DZ FEW006/// SCT010/// BKN013/// 14/13 Q1017 GRN RMK TS INFO NOT AVBL
7:55 pm
I
57 °F 1¾ mi 1.300 ft 240° 240° 16 kt METAR EHLW 261755Z AUTO 24016KT 210V280 2900 +DZ FEW006/// SCT010/// BKN013/// 14/13 Q1017 YLO RMK TS INFO NOT AVBL
7:41 pm
M
57 °F 3⅛ mi 1.100 ft 240° 240° 16 kt METAR EHLW 261741Z AUTO 24016KT 210V280 5000 +DZ FEW007/// BKN011/// BKN014/// 14/13 Q1017 GRN RMK TS INFO NOT AVBL
7:33 pm
I
57 °F 2⅜ mi 1.100 ft 240° 240° 16 kt METAR EHLW 261733Z AUTO 24016KT 210V280 3900 DZ FEW007/// BKN011/// BKN014/// 14/13 Q1017 GRN RMK TS INFO NOT AVBL
7:25 pm
I
57 °F 1⅞ mi 1.500 ft 240° 240° 16 kt METAR EHLW 261725Z AUTO 24016KT 210V270 3000 +DZ FEW009/// SCT012/// BKN015/// 14/13 Q1017 YLO RMK TS INFO NOT AVBL
7:13 pm
I
57 °F 2 mi 1.600 ft 240° 240° 19 kt METAR EHLW 261713Z AUTO 24019KT 210V280 3200 DZ SCT014/// OVC016/// 14/13 Q1017 YLO RMK TS INFO NOT AVBL
7:08 pm
I
59 °F 2⅜ mi 1.700 ft 240° 240° 19 kt METAR EHLW 261708Z AUTO 24019KT 210V270 3900 DZ SCT014/// BKN017/// OVC021/// 15/12 Q1017 GRN RMK TS INFO NOT AVBL
6:55 pm
M
59 °F 3¾ mi 2.100 ft 240° 240° 18 kt METAR EHLW 261655Z AUTO 24018KT 210V280 6000 -RADZ SCT017/// BKN021/// BKN025/// 15/12 Q1017 WHT RMK TS INFO NOT AVBL
6:43 pm
M
59 °F 3¾ mi 2.200 ft 240° 240° 21 kt METAR EHLW 261643Z AUTO 24021KT 200V260 6000 HZ SCT017/// BKN022/// OVC026/// 15/11 Q1017 WHT RMK TS INFO NOT AVBL
6:21 pm
M
59 °F 6¼ mi+ 2.900 ft 240° 240° 16 kt METAR EHLW 261621Z AUTO 24016KT 210V270 9999 SCT018/// BKN029/// OVC035/// 15/11 Q1017 WHT RMK TS INFO NOT AVBL
6:05 pm
V
61 °F 6¼ mi+ 3.000 ft 240° 240° 19 kt METAR EHLW 261605Z AUTO 24019KT 210V280 9999 FEW019/// SCT025/// BKN030/// 16/11 Q1017 BLU RMK TS INFO NOT AVBL
5:55 pm
M
59 °F 6¼ mi+ 1.800 ft 250° 250° 20 kt METAR EHLW 261555Z AUTO 25020KT 200V270 9999 BKN018/// BKN025/// BKN029/// 15/11 Q1017 WHT RMK TS INFO NOT AVBL
5:35 pm
V
59 °F 6¼ mi+ 4.500 ft 250° 250° 18 kt METAR EHLW 261535Z AUTO 25018KT 200V270 9999 FEW020/// SCT024/// OVC045/// 15/11 Q1018 WHT RMK TS INFO NOT AVBL
5:27 pm
V
61 °F 6¼ mi+ 4.600 ft 240° 240° 18 kt METAR EHLW 261527Z AUTO 24018KT 210V280 9999 FEW020/// OVC046/// 16/10 Q1018 BLU RMK TS INFO NOT AVBL
5:25 pm
M
59 °F 6¼ mi+ 2.200 ft 250° 250° 19 kt METAR EHLW 261525Z AUTO 25019KT 210V280 9999 SCT019/// BKN022/// BKN026/// 15/10 Q1018 WHT RMK TS INFO NOT AVBL
5:14 pm
V
59 °F 6¼ mi+ 4.900 ft 250° 250° 19 kt METAR EHLW 261514Z AUTO 25019KT 210V280 9999 SCT020/// SCT026/// OVC049/// 15/10 Q1018 WHT RMK TS INFO NOT AVBL
4:55 pm
V
59 °F 6¼ mi+ 4.900 ft 250° 250° 19 kt METAR EHLW 261455Z AUTO 25019KT 200V270 9999 FEW020/// BKN049/// OVC053/// 15/10 Q1018 BLU RMK TS INFO NOT AVBL
4:25 pm
M
59 °F 6¼ mi+ 2.600 ft 240° 240° 18 kt METAR EHLW 261425Z AUTO 24018KT 210V280 9999 FEW019/// SCT022/// BKN026/// 15/10 Q1018 WHT RMK TS INFO NOT AVBL
4:20 pm
V
61 °F 6¼ mi+ 5.300 ft 240° 240° 18 kt METAR EHLW 261420Z AUTO 24018KT 200V270 9999 FEW020/// SCT028/// OVC053/// 16/11 Q1018 BLU RMK TS INFO NOT AVBL
4:16 pm
M
59 °F 6¼ mi+ 2.800 ft 240° 240° 18 kt METAR EHLW 261416Z AUTO 24018KT 200V270 9999 SCT021/// BKN028/// BKN031/// 15/10 Q1018 WHT RMK TS INFO NOT AVBL
4:02 pm
M
59 °F 6¼ mi+ 2.800 ft 250° 250° 19 kt METAR EHLW 261402Z AUTO 25019KT 210V270 9999 FEW021/// SCT025/// BKN028/// 15/10 Q1018 BLU RMK TS INFO NOT AVBL
3:55 pm
M
61 °F 6¼ mi+ 2.400 ft 250° 250° 17 kt METAR EHLW 261355Z AUTO 25017KT 200V280 9999 SCT020/// BKN024/// BKN058/// 16/10 Q1018 WHT RMK TS INFO NOT AVBL
3:31 pm
V
61 °F 6¼ mi+ 6.700 ft 240° 240° 19 kt METAR EHLW 261331Z AUTO 24019KT 210V280 9999 FEW020/// SCT061/// OVC067/// 16/10 Q1018 BLU RMK TS INFO NOT AVBL
3:25 pm
V
61 °F 6¼ mi+ 6.700 ft 240° 240° 19 kt METAR EHLW 261325Z AUTO 24019KT 210V270 9999 SCT019/// BKN067/// OVC072/// 16/11 Q1018 WHT RMK TS INFO NOT AVBL
3:13 pm
V
63 °F 6¼ mi+ 6.800 ft 240° 240° 19 kt METAR EHLW 261313Z AUTO 24019KT 210V280 9999 FEW023/// SCT031/// BKN068/// 17/11 Q1018 BLU RMK TS INFO NOT AVBL
2:59 pm
V
61 °F 6¼ mi+ 4.500 ft 250° 250° 16 kt METAR EHLW 261259Z AUTO 25016KT 210V290 9999 FEW021/// SCT024/// BKN045/// 16/11 Q1018 WHT RMK TS INFO NOT AVBL
2:55 pm
V
63 °F 6¼ mi+ 6.900 ft 250° 250° 17 kt METAR EHLW 261255Z AUTO 25017KT 220V290 9999 FEW021/// SCT026/// OVC069/// 17/11 Q1018 BLU RMK TS INFO NOT AVBL
2:33 pm
V
63 °F 6¼ mi+ 7.300 ft 250° 250° 17 kt METAR EHLW 261233Z AUTO 25017KT 220V290 9999 FEW024/// BKN073/// OVC082/// 17/10 Q1018 BLU RMK TS INFO NOT AVBL
2:25 pm
V
63 °F 6¼ mi+ 7.200 ft 250° 250° 16 kt METAR EHLW 261225Z AUTO 25016KT 230V290 9999 SCT024/// SCT027/// OVC072/// 17/11 Q1018 WHT RMK TS INFO NOT AVBL
2:07 pm
V
63 °F 6¼ mi+ 7.300 ft 250° 250° 17 kt METAR EHLW 261207Z AUTO 25017KT 9999 FEW023/// SCT027/// BKN073/// 17/11 Q1018 BLU RMK TS INFO NOT AVBL
2:03 pm
M
63 °F 6¼ mi+ 2.600 ft 250° 250° 17 kt METAR EHLW 261203Z AUTO 25017KT 200V270 9999 SCT022/// BKN026/// BKN030/// 17/10 Q1018 WHT RMK TS INFO NOT AVBL
1:55 pm
M
63 °F 6¼ mi+ 2.700 ft 250° 250° 16 kt METAR EHLW 261155Z AUTO 25016KT 200V280 9999 SCT023 BKN027 BKN033 17/10 Q1018 WHT
1:33 pm
V
63 °F 6¼ mi+ 5.100 ft 250° 250° 16 kt METAR EHLW 261133Z AUTO 25016KT 190V310 9999 SCT024 SCT028 OVC051 17/10 Q1018 WHT
1:25 pm
V
63 °F 6¼ mi+ 3.000 ft 250° 250° 16 kt METAR EHLW 261125Z AUTO 25016KT 210V300 9999 SCT025 BKN030 BKN043 17/11 Q1018 BLU
1:12 pm
V
63 °F 6¼ mi+ 3.000 ft 260° 260° 14 kt METAR EHLW 261112Z AUTO 26014KT 220V290 9999 FEW022 SCT025 BKN030 17/11 Q1018 BLU
12:55 pm
V
61 °F 6¼ mi+ 3.000 ft 260° 260° 14 kt METAR EHLW 261055Z AUTO 26014KT 220V300 9999 FEW020 SCT023 BKN030 16/11 Q1018 WHT
12:25 pm
V
61 °F 6¼ mi+ 9.400 ft 250° 250° 17 kt METAR EHLW 261025Z AUTO 25017KT 210V280 9999 FEW023 SCT047 OVC094 16/11 Q1018 BLU
12:16 pm
M
61 °F 6¼ mi+ 2.800 ft 270° 270° 14 kt METAR EHLW 261016Z AUTO 27014KT 230V300 9999 SCT021 BKN028 BKN037 16/11 Q1018 WHT
12:05 pm
V
61 °F 6¼ mi+ 3.000 ft 270° 270° 15 kt METAR EHLW 261005Z AUTO 27015KT 230V290 9999 FEW022 SCT027 BKN030 16/11 Q1018 BLU
11:55 am
M
61 °F 6¼ mi+ 2.700 ft 270° 270° 15 kt METAR EHLW 260955Z AUTO 27015KT 220V290 9999 SCT023 BKN027 BKN030 16/10 Q1018 WHT
11:25 am
V
63 °F 6¼ mi+ - 270° 270° 13 kt METAR EHLW 260925Z AUTO 27013KT 210V300 9999 FEW029 17/09 Q1018 BLU
10:55 am
V
61 °F 6¼ mi+ 6.500 ft 270° 270° 13 kt METAR EHLW 260855Z AUTO 27013KT 230V290 9999 FEW056 OVC065 16/10 Q1018 BLU
10:25 am
V
61 °F 6¼ mi+ 5.600 ft 270° 270° 13 kt METAR EHLW 260825Z AUTO 27013KT 230V310 9999 BKN056 OVC066 16/09 Q1018 BLU
10:02 am
V
59 °F 6¼ mi+ 6.200 ft 270° 270° 15 kt METAR EHLW 260802Z AUTO 27015KT 240V310 9999 FEW020 OVC062 15/10 Q1018 BLU
9:55 am
V
59 °F 6¼ mi+ 6.100 ft 270° 270° 13 kt METAR EHLW 260755Z AUTO 27013KT 230V300 9999 SCT019 OVC061 15/10 Q1018 WHT
9:39 am
V
59 °F 6¼ mi+ 6.200 ft 260° 260° 15 kt METAR EHLW 260739Z AUTO 26015KT 230V310 9999 FEW020 OVC062 15/10 Q1017 BLU
9:25 am
V
59 °F 6¼ mi+ 6.400 ft 270° 270° 14 kt METAR EHLW 260725Z AUTO 27014KT 230V300 9999 FEW020 SCT024 OVC064 15/10 Q1017 WHT
9:13 am
V
57 °F 6¼ mi+ 6.400 ft 270° 270° 13 kt METAR EHLW 260713Z AUTO 27013KT 230V310 9999 FEW020 OVC064 14/10 Q1017 BLU
9:04 am
V
57 °F 6¼ mi+ 6.300 ft 270° 270° 14 kt METAR EHLW 260704Z AUTO 27014KT 230V300 9999 SCT019 OVC063 14/10 Q1017 WHT
8:55 am
V
59 °F 6¼ mi+ 6.500 ft 280° 280° 13 kt METAR EHLW 260655Z AUTO 28013KT 230V310 9999 FEW020 OVC065 15/10 Q1017 BLU
8:44 am
V
57 °F 6¼ mi+ 6.500 ft 270° 270° 13 kt METAR EHLW 260644Z AUTO 27013KT 230V300 9999 FEW019 SCT025 BKN065 14/10 Q1017 BLU
8:27 am
V
57 °F 6¼ mi+ 30.000 ft 270° 270° 14 kt METAR EHLW 260627Z AUTO 27014KT 230V310 9999 SCT019 BKN300 14/10 Q1017 WHT
8:25 am
V
57 °F 6¼ mi+ 30.000 ft 270° 270° 13 kt METAR EHLW 260625Z AUTO 27013KT 230V300 9999 BKN300 14/10 Q1017 BLU
7:55 am
V
57 °F 6¼ mi+ - 270° 270° 11 kt METAR EHLW 260555Z AUTO 27011KT 240V300 9999 NCD 14/10 Q1016 BLU
7:25 am
V
57 °F 6¼ mi+ - 270° 270° 9 kt METAR EHLW 260525Z AUTO 27009KT 240V300 9999 NCD 14/10 Q1016 BLU
6:55 am
V
55 °F 6¼ mi+ - 270° 270° 8 kt METAR EHLW 260455Z AUTO 27008KT 230V300 9999 FEW036 13/10 Q1016 BLU
6:25 am
V
54 °F 6¼ mi+ - 280° 280° 8 kt METAR EHLW 260425Z AUTO 28008KT 240V310 9999 NCD 12/09 Q1015 BLU
5:55 am
V
54 °F 6¼ mi+ - 270° 270° 7 kt METAR EHLW 260355Z AUTO 27007KT 230V310 9999 FEW036 12/09 Q1015 BLU
5:25 am
V
55 °F 6¼ mi+ 6.700 ft 270° 270° 8 kt METAR EHLW 260325Z AUTO 27008KT 230V310 9999 BKN067 13/09 Q1015 BLU
4:55 am
V
55 °F 6¼ mi+ - 260° 260° 9 kt METAR EHLW 260255Z AUTO 26009KT 9999 NCD 13/09 Q1015 BLU
4:25 am
V
55 °F 6¼ mi+ - 260° 260° 9 kt METAR EHLW 260225Z AUTO 26009KT 220V300 9999 FEW076 13/10 Q1014 BLU
3:55 am
V
57 °F 6¼ mi+ 3.900 ft 250° 250° 10 kt METAR EHLW 260155Z AUTO 25010KT 220V280 9999 BKN039 BKN046 14/11 Q1014 BLU
3:25 am
V
57 °F 6¼ mi+ 3.800 ft 260° 260° 11 kt METAR EHLW 260125Z AUTO 26011KT 220V280 9999 BKN038 OVC042 14/11 Q1014 BLU
2:55 am
V
57 °F 6¼ mi+ 7.100 ft 250° 250° 9 kt METAR EHLW 260055Z AUTO 25009KT 9999 FEW042 OVC071 14/12 Q1014 BLU
2:25 am
V
57 °F 6¼ mi+ - 250° 250° 10 kt METAR EHLW 260025Z AUTO 25010KT 9999 FEW063 14/12 Q1014 BLU
1:55 am
V
57 °F 6¼ mi+ 7.700 ft 250° 250° 11 kt METAR EHLW 252355Z AUTO 25011KT 9999 BKN077 14/12 Q1013 BLU
1:33 am
V
57 °F 6¼ mi+ 7.500 ft 240° 240° 12 kt METAR EHLW 252333Z AUTO 24012KT 9999 FEW008 SCT009 BKN075 14/13 Q1013 GRN
1:25 am
M
57 °F 6¼ mi+ 1.000 ft 250° 250° 13 kt METAR EHLW 252325Z AUTO 25013KT 210V280 9999 SCT008 BKN010 BKN041 14/13 Q1013 GRN
1:09 am
M
57 °F 6¼ mi+ 1.000 ft 250° 250° 14 kt METAR EHLW 252309Z AUTO 25014KT 220V280 9999 SCT009 OVC010 14/13 Q1013 GRN
12:55 am
I
57 °F 6¼ mi+ 900 ft 250° 250° 14 kt METAR EHLW 252255Z AUTO 25014KT 210V270 9999 SCT008 BKN009 OVC011 14/13 Q1013 GRN
12:37 am
M
57 °F 6¼ mi+ 1.000 ft 240° 240° 14 kt METAR EHLW 252237Z AUTO 24014KT 200V280 9999 FEW008 BKN010 OVC012 14/13 Q1013 GRN
12:25 am
M
57 °F 6¼ mi+ 1.000 ft 240° 240° 16 kt METAR EHLW 252225Z AUTO 24016KT 200V270 9999 SCT009 BKN010 OVC015 14/12 Q1013 GRN

25 maja 2022

Czas Kod Pogoda Temp. Widoczność Sufit Wiatr METAR/SPECI
11:55 pm
M
57 °F 6¼ mi+ 1.200 ft 240° 240° 15 kt METAR EHLW 252155Z AUTO 24015KT 200V260 9999 SCT010 BKN012 BKN060 14/12 Q1013 GRN
11:25 pm
M
57 °F 6¼ mi+ 1.000 ft 240° 240° 16 - 27 kt METAR EHLW 252125Z AUTO 24016G27KT 9999 BKN010 OVC012 14/12 Q1013 GRN
10:55 pm
M
57 °F 6¼ mi+ 1.100 ft 240° 240° 15 kt METAR EHLW 252055Z AUTO 24015KT 190V260 9999 BKN011 BKN014 OVC016 14/12 Q1013 GRN
10:25 pm
M
57 °F 6¼ mi+ 1.200 ft 230° 230° 16 kt METAR EHLW 252025Z AUTO 23016KT 180V270 9999 BKN012 OVC015 14/12 Q1012 GRN
10:06 pm
M
57 °F 6¼ mi+ 1.300 ft 230° 230° 15 kt METAR EHLW 252006Z AUTO 23015KT 200V270 9999 BKN013 OVC015 14/12 Q1012 GRN
10:05 pm
M
57 °F 6¼ mi+ 1.500 ft 230° 230° 15 - 25 kt METAR EHLW 252005Z AUTO 23015G25KT 190V270 9999 SCT013 OVC015 14/12 Q1012 GRN
9:55 pm
M
57 °F 6¼ mi+ 1.600 ft 230° 230° 16 kt METAR EHLW 251955Z AUTO 23016KT 200V260 9999 SCT013 OVC016 14/12 Q1012 GRN
9:43 pm
M
57 °F 6¼ mi+ 1.500 ft 230° 230° 18 kt METAR EHLW 251943Z AUTO 23018KT 200V260 9999 FEW013 OVC015 14/12 Q1012 WHT
9:37 pm
M
57 °F 6¼ mi+ 1.700 ft 230° 230° 16 kt METAR EHLW 251937Z AUTO 23016KT 200V260 9999 SCT014 OVC017 14/12 Q1012 GRN
9:25 pm
M
57 °F 6¼ mi+ 1.500 ft 230° 230° 16 kt METAR EHLW 251925Z AUTO 23016KT 200V260 9999 FEW013 BKN015 OVC019 14/12 Q1012 WHT
9:17 pm
M
57 °F 6¼ mi+ 1.600 ft 230° 230° 15 kt METAR EHLW 251917Z AUTO 23015KT 190V270 9999 SCT013 OVC016 14/12 Q1012 GRN
9:10 pm
M
57 °F 6¼ mi+ 1.500 ft 230° 230° 15 kt METAR EHLW 251910Z AUTO 23015KT 190V270 9999 FEW013 OVC015 14/12 Q1012 WHT
8:55 pm
M
57 °F 6¼ mi+ 1.500 ft 230° 230° 15 kt METAR EHLW 251855Z AUTO 23015KT 190V250 9999 SCT013 OVC015 14/12 Q1012 GRN
8:37 pm
M
57 °F 6¼ mi+ 1.600 ft 230° 230° 15 kt METAR EHLW 251837Z AUTO 23015KT 9999 SCT014 OVC016 14/12 Q1012 GRN
8:35 pm
M
57 °F 6¼ mi+ 1.500 ft 230° 230° 14 kt METAR EHLW 251835Z AUTO 23014KT 9999 FEW013 BKN015 OVC018 14/12 Q1012 WHT
8:25 pm
M
55 °F 6¼ mi+ 1.100 ft 230° 230° 14 kt METAR EHLW 251825Z AUTO 23014KT 200V260 9999 FEW009 BKN011 BKN014 13/12 Q1012 GRN
8:06 pm
M
55 °F 6¼ mi+ 1.300 ft 230° 230° 14 kt METAR EHLW 251806Z AUTO 23014KT 200V260 9999 SCT010 BKN013 BKN015 13/12 Q1012 GRN
7:55 pm
M
55 °F 6¼ mi+ 1.300 ft 220° 220° 14 kt METAR EHLW 251755Z AUTO 22014KT 180V250 9999 FEW007 BKN013 OVC016 13/12 Q1012 REDZ GRN
7:40 pm
I
55 °F 2½ mi 1.300 ft 220° 220° 16 kt METAR EHLW 251740Z AUTO 22016KT 180V240 4100 -RA FEW007 SCT010 BKN013 13/12 Q1012 GRN
7:39 pm
M
55 °F 6¼ mi+ 1.700 ft 220° 220° 16 kt METAR EHLW 251739Z AUTO 22016KT 180V240 9999 FEW009 SCT012 OVC017 13/12 Q1012 GRN
7:25 pm
M
55 °F 6¼ mi+ 1.600 ft 220° 220° 16 kt METAR EHLW 251725Z AUTO 22016KT 190V250 9999 FEW009 SCT010 OVC016 13/12 Q1012 REDZ GRN
7:19 pm
M
55 °F 6¼ mi+ 1.300 ft 220° 220° 17 kt METAR EHLW 251719Z AUTO 22017KT 190V250 9999 FEW009 SCT010 BKN013 13/12 Q1012 GRN
7:08 pm
I
55 °F 5 mi 800 ft 220° 220° 16 - 26 kt METAR EHLW 251708Z AUTO 22016G26KT 190V250 8000 -DZ FEW005 SCT007 BKN008 13/12 Q1012 GRN
7:03 pm
I
55 °F 2¾ mi 800 ft 230° 230° 16 kt METAR EHLW 251703Z AUTO 23016KT 180V250 4400 -RADZ FEW004 SCT006 BKN008 13/12 Q1012 YLO
6:59 pm
I
55 °F 2⅜ mi 1.000 ft 230° 230° 15 kt METAR EHLW 251659Z AUTO 23015KT 180V250 3900 -SHRA +DZ FEW004 SCT006 BKN010 13/12 Q1012 YLO
6:55 pm
I
55 °F 2⅛ mi 1.600 ft 230° 230° 15 kt METAR EHLW 251655Z AUTO 23015KT 180V250 3500 +DZ FEW005 SCT010 BKN016 13/12 Q1012 YLO
6:44 pm
I
55 °F 2 mi 3.300 ft 230° 230° 16 - 26 kt METAR EHLW 251644Z AUTO 23016G26KT 190V260 3200 DZ FEW019 SCT023 BKN033 13/12 Q1012 YLO
6:38 pm
M
55 °F 3¾ mi 3.900 ft 230° 230° 17 kt METAR EHLW 251638Z AUTO 23017KT 190V260 6000 DZRA FEW012 SCT033 BKN039 13/12 Q1012 WHT
6:25 pm
M
57 °F 4⅜ mi 3.300 ft 240° 240° 18 kt METAR EHLW 251625Z AUTO 24018KT 200V260 7000 -RADZ FEW016 SCT019 BKN033 14/11 Q1012 WHT
6:14 pm
V
57 °F 5⅝ mi 3.000 ft 230° 230° 21 - 31 kt METAR EHLW 251614Z AUTO 23021G31KT 200V260 9000 -RADZ FEW022 SCT025 BKN030 14/11 Q1012 BLU
6:13 pm
M
57 °F 6¼ mi+ 2.600 ft 230° 230° 21 - 31 kt METAR EHLW 251613Z AUTO 23021G31KT 200V260 9999 RA SCT022 BKN026 OVC030 14/10 Q1012 WHT
6:07 pm
V
59 °F 6¼ mi+ 3.000 ft 230° 230° 20 kt METAR EHLW 251607Z AUTO 23020KT 190V260 9999 SCT024 BKN030 BKN034 15/09 Q1012 WHT
5:55 pm
V
59 °F 6¼ mi+ 3.700 ft 230° 230° 20 kt METAR EHLW 251555Z AUTO 23020KT 190V260 9999 SCT028 SCT032 BKN037 15/09 Q1012 BLU
5:25 pm
V
59 °F 6¼ mi+ 3.100 ft 230° 230° 16 - 30 kt METAR EHLW 251525Z AUTO 23016G30KT 190V270 9999 BKN031 BKN039 BKN043 15/08 Q1012 BLU
4:55 pm
V
59 °F 6¼ mi+ 7.300 ft 230° 230° 18 - 30 kt METAR EHLW 251455Z AUTO 23018G30KT 190V260 9999 FEW033 OVC073 15/08 Q1012 BLU
Starsze dane

Pobierz naszą aplikację

Łatwy dostęp do całej pogody lotniczej na telefonie komórkowym i tablecie.
Z wieloma funkcjami niedostępnymi na stronie internetowej, takimi jak wsparcie offline i osobista lista lotnisk.

My i osoby trzecie śledzimy twoje zachowanie w internecie na naszej stronie za pomocą plików cookie. Jeśli kontynuujesz, zakładamy, że zgadzasz się z naszą polityką plików cookie. Dowiedz się więcej